Wind_Speed
17 17 17 18 19 19 18 17 17 18 17 16 16 16 15 15 14 14 14 14 14 14 13 13 13 13 13 12 11 10 10 10 10 9 9 8 8 8 8 8 8 8 8 7
17 18 18 19 19 19 18 18 18 18 19 17 17 16 16 16 15 15 15 15 15 15 15 15 14 14 14 13 12 12 12 11 11 11 11 10 9 10 10 10 9 9 9 8
18 19 18 19 19 19 19 19 19 19 19 18 17 16 16 16 16 17 16 17 16 16 16 16 15 15 14 14 13 13 13 12 12 13 13 12 11 10 10 10 10 9 9 9
19 19 19 19 19 19 19 20 20 20 18 18 17 16 17 16 17 18 17 17 17 17 17 17 16 16 15 15 14 14 14 13 13 12 13 13 11 11 11 10 10 9 9 9
20 19 19 19 19 19 20 20 21 20 19 18 18 17 18 17 17 18 17 17 17 17 17 17 18 17 17 17 16 15 14 13 13 13 13 13 12 11 11 11 10 10 10 10
20 20 20 20 20 20 20 19 19 19 19 20 20 19 19 19 18 18 18 17 17 18 18 18 18 18 18 17 16 16 15 14 14 13 12 13 13 12 12 11 11 11 11 11
19 20 20 20 20 21 20 19 18 19 20 21 21 21 22 20 19 19 18 18 18 19 18 18 18 18 18 18 17 17 16 15 15 14 13 13 13 14 13 12 12 12 11 11
18 19 20 20 20 20 20 21 20 19 19 21 22 23 23 22 21 20 19 19 18 18 18 17 17 18 18 18 18 17 16 16 16 15 14 14 14 15 14 13 13 13 13 12
17 18 19 19 20 21 21 22 22 22 22 21 22 24 24 24 23 21 21 20 19 19 19 18 19 19 19 19 18 18 17 17 16 16 15 15 15 15 15 15 15 15 15 14
18 19 19 19 20 21 22 22 22 22 22 22 22 23 24 24 23 22 22 21 21 21 21 20 20 20 20 20 19 19 18 18 17 17 17 16 16 16 16 16 16 17 16 16
18 19 19 19 20 20 20 21 22 22 23 22 21 23 24 25 24 23 23 22 22 22 22 21 21 21 21 20 20 19 19 18 18 18 18 18 18 17 18 18 17 17 17 16
18 18 18 19 19 20 20 19 20 21 22 23 22 23 25 25 24 24 23 22 22 22 21 21 21 21 21 21 20 20 20 20 20 20 20 20 20 19 19 18 18 18 17 17
18 18 17 17 18 19 19 19 20 21 22 22 21 23 24 24 23 23 22 22 21 21 21 21 21 21 21 21 21 21 21 21 21 21 21 21 21 21 20 19 19 19 19 19
18 18 18 17 17 19 20 20 20 20 20 21 21 22 23 23 22 22 22 21 21 21 21 21 21 22 22 22 22 22 22 23 23 23 23 23 23 22 22 21 20 20 20 20
18 18 19 19 20 20 20 20 20 20 20 21 21 21 22 22 21 21 21 21 21 21 21 21 22 23 23 23 23 23 24 24 24 24 24 24 23 23 23 23 22 22 21 21
18 18 19 19 20 20 20 21 20 19 20 20 21 22 22 21 21 21 21 21 21 22 22 22 22 23 24 24 24 24 25 25 25 25 24 24 24 24 24 24 24 24 23 23
19 19 19 19 20 21 21 21 21 21 21 21 22 22 21 22 22 21 21 22 22 22 22 21 21 23 24 25 26 26 26 26 26 26 25 25 26 27 27 26 26 25 24 24
19 19 20 20 20 21 21 21 20 21 22 23 23 23 23 23 23 22 22 22 22 22 22 22 23 24 25 26 26 27 27 27 27 27 27 28 28 28 28 27 27 26 26 25
19 19 20 20 20 21 21 21 20 21 21 22 23 23 23 23 24 23 23 23 23 23 23 23 23 24 25 25 26 27 28 28 28 28 29 29 29 29 29 28 27 27 27 26
19 19 20 21 21 21 22 21 20 21 22 22 22 22 23 23 24 23 23 23 23 24 25 25 25 24 24 25 25 27 28 28 28 27 28 28 28 28 29 29 28 28 27 27
20 20 20 21 22 23 23 21 21 22 22 22 22 22 23 23 23 23 23 24 24 25 25 25 25 25 25 25 25 26 27 28 28 27 26 27 27 27 28 28 28 29 29 29
21 21 21 21 21 23 23 22 22 22 22 22 22 22 23 23 23 24 24 25 25 25 25 25 25 25 25 24 24 25 25 25 26 26 26 26 26 28 28 27 27 28 28 28
22 22 22 22 22 23 23 23 23 23 23 23 23 23 23 23 24 25 25 26 26 26 26 26 25 25 25 24 24 23 24 24 25 25 26 26 27 28 28 28 27 27 27 27
22 22 23 23 23 23 23 23 23 23 23 23 23 23 22 22 23 24 24 25 25 26 26 26 25 24 24 24 24 23 23 24 25 25 26 26 27 27 28 27 27 26 27 28
22 22 23 23 23 23 23 23 23 22 22 22 22 23 22 22 22 22 23 23 23 23 23 24 24 24 24 24 23 24 24 24 24 25 25 25 25 25 25 26 27 27 28 29
22 22 22 22 23 23 22 22 22 22 22 22 22 22 23 22 21 22 22 22 23 23 23 23 23 24 25 25 25 25 24 25 25 25 25 24 24 25 25 26 27 28 29 30
Wind_Direction
235 235 234 234 234 234 237 239 242 247 248 248 248 249 253 255 256 255 257 257 258 262 263 268 271 274 278 283 285 283 280 282 281 277 275 276 280 283 284 290 291 286 281 282
236 236 236 237 237 236 237 240 243 246 248 248 249 252 254 254 255 256 255 254 254 257 261 267 271 273 274 277 279 281 280 277 275 275 272 269 273 277 280 285 285 280 278 276
236 239 240 240 239 238 239 239 240 242 245 249 252 256 255 256 256 256 255 254 256 259 262 265 266 268 270 274 277 281 281 278 276 273 269 268 270 274 276 280 284 280 275 270
240 242 242 241 239 240 240 240 241 243 244 248 249 253 257 257 256 256 255 255 255 259 263 265 266 267 270 272 274 277 278 279 279 277 270 269 267 270 274 277 280 279 274 268
242 242 241 240 240 241 240 242 244 244 245 246 250 250 256 256 255 254 255 256 257 260 262 264 265 267 268 270 272 273 276 278 278 278 272 266 265 268 270 274 277 275 272 269
242 243 241 240 241 242 242 244 247 248 248 248 248 250 252 257 254 253 254 258 260 261 262 263 263 265 266 268 269 271 274 276 276 276 271 265 264 264 267 271 274 274 271 271
243 243 243 242 243 243 243 244 247 249 249 249 251 252 251 255 254 252 254 258 259 260 261 263 264 264 266 268 268 269 269 272 274 274 272 267 267 264 265 269 274 275 274 273
242 244 243 243 244 245 244 243 243 245 249 253 254 254 255 255 254 254 256 260 261 259 260 262 263 263 266 268 267 267 268 270 272 273 273 271 273 270 268 270 272 273 276 279
240 244 245 245 244 244 244 243 244 248 250 252 256 258 258 256 257 256 257 259 259 259 260 261 261 263 266 267 267 268 268 268 269 269 270 272 273 271 270 269 268 268 270 274
242 245 247 248 248 246 245 245 247 247 251 253 256 259 259 259 260 259 258 259 259 259 260 260 261 261 262 263 265 267 267 267 266 266 266 266 268 268 270 270 268 268 268 271
246 246 249 249 248 250 248 247 249 250 250 252 257 259 260 262 259 260 260 259 260 261 261 260 260 259 260 262 263 264 264 264 267 267 266 265 266 267 269 271 270 269 266 267
246 247 250 251 251 249 249 250 252 253 256 255 254 259 262 262 260 260 260 259 259 260 261 260 259 257 258 259 261 261 262 263 266 267 267 266 266 267 268 269 269 269 268 266
249 250 253 257 258 253 251 252 253 255 258 258 256 259 261 261 260 258 259 259 259 261 261 258 256 255 258 259 260 260 261 263 265 267 267 267 266 265 266 265 265 266 268 267
250 250 247 248 251 255 256 255 256 258 259 258 256 256 261 262 260 258 259 259 259 262 263 259 254 253 256 258 259 259 261 262 265 267 268 268 266 264 264 262 264 265 267 267
250 250 250 250 251 254 259 258 257 258 256 255 256 258 261 261 260 259 258 259 259 260 260 258 255 253 254 257 259 259 260 262 265 267 268 266 264 263 262 261 263 266 268 269
249 251 252 253 255 256 258 258 256 258 258 254 256 258 259 261 259 259 259 259 260 259 258 258 257 258 258 258 259 260 260 261 263 265 265 263 261 262 261 261 264 267 268 269
253 254 254 256 257 258 258 260 259 258 258 256 257 258 259 261 260 260 261 260 260 260 258 258 258 258 259 260 261 261 260 261 261 262 263 262 262 263 262 262 264 266 268 268
256 255 255 256 257 258 261 262 261 260 258 257 258 259 258 260 261 260 260 259 259 260 260 261 260 261 262 262 262 264 262 261 263 264 263 261 261 262 261 261 263 264 267 268
256 256 255 257 259 262 263 263 263 262 260 259 260 260 260 260 260 261 261 260 259 259 260 261 261 262 263 263 262 263 262 262 263 265 266 264 261 261 260 261 263 264 266 267
256 256 257 257 258 262 264 262 262 263 262 260 261 261 261 259 260 260 260 260 261 261 261 262 263 264 264 263 263 264 263 263 264 266 264 263 262 261 261 262 264 264 267 268
257 258 258 258 259 260 262 264 263 262 264 263 264 263 262 260 259 259 260 261 261 262 263 264 264 265 266 265 264 264 263 263 263 264 262 261 260 260 260 261 263 265 267 268
259 260 259 259 259 260 262 263 262 263 264 265 265 264 262 260 259 259 261 262 261 262 263 264 264 264 265 265 264 263 262 261 262 263 262 261 261 260 259 261 264 265 266 266
260 260 260 259 260 262 262 262 262 263 264 265 265 265 262 261 259 259 261 261 261 262 262 263 264 264 264 264 263 262 259 259 262 262 262 262 262 261 260 261 263 264 265 264
260 260 261 261 262 262 263 261 262 265 266 265 265 265 262 261 262 261 260 261 263 263 261 261 262 263 262 263 263 263 263 263 263 263 263 263 264 263 262 261 262 263 264 263
261 262 262 262 263 262 263 262 262 265 267 266 265 264 264 263 262 260 259 260 262 261 262 262 261 260 260 260 263 264 264 265 265 266 266 264 264 265 264 262 261 263 265 264
261 262 261 262 262 263 264 263 264 265 265 266 263 262 262 262 263 261 259 259 260 260 260 260 260 260 261 262 263 265 266 266 266 265 265 265 264 263 263 264 264 264 266 267
Height
5866 5870 5871 5873 5875 5877 5879 5881 5882 5883 5883 5884 5885 5886 5887 5887 5887 5887 5887 5888 5888 5888 5888 5887 5887 5887 5886 5885 5884 5884 5882 5881 5880 5880 5879 5878 5878 5877 5876 5875 5874 5874 5873 5872
5864 5866 5867 5868 5870 5873 5875 5877 5878 5879 5879 5881 5882 5883 5883 5883 5884 5884 5884 5884 5885 5885 5885 5884 5884 5884 5883 5883 5882 5881 5880 5879 5878 5877 5877 5876 5875 5875 5874 5873 5872 5871 5870 5870
5860 5862 5863 5865 5866 5869 5871 5873 5874 5875 5876 5877 5879 5880 5880 5880 5880 5880 5881 5881 5881 5881 5882 5881 5881 5881 5880 5880 5879 5878 5877 5876 5875 5874 5874 5873 5873 5872 5871 5870 5870 5869 5868 5867
5855 5857 5859 5861 5862 5864 5867 5868 5869 5871 5873 5874 5876 5877 5876 5877 5877 5877 5877 5877 5878 5878 5878 5878 5878 5877 5877 5876 5876 5875 5874 5873 5872 5871 5870 5870 5869 5869 5868 5867 5867 5866 5865 5865
5851 5853 5855 5857 5858 5860 5862 5863 5865 5866 5868 5870 5871 5873 5873 5873 5873 5873 5873 5874 5874 5874 5874 5874 5874 5874 5873 5873 5872 5871 5871 5870 5869 5868 5867 5866 5866 5866 5865 5864 5864 5863 5863 5862
5847 5849 5850 5852 5853 5855 5857 5859 5860 5862 5864 5866 5867 5868 5869 5868 5868 5869 5869 5870 5870 5870 5870 5870 5870 5870 5869 5869 5868 5868 5867 5867 5866 5865 5864 5863 5863 5863 5862 5861 5861 5860 5860 5860
5843 5844 5846 5847 5849 5851 5853 5856 5858 5859 5860 5861 5862 5862 5863 5863 5864 5865 5865 5866 5865 5866 5866 5866 5866 5866 5865 5865 5864 5864 5864 5863 5862 5862 5861 5860 5860 5859 5858 5858 5858 5857 5857 5857
5839 5841 5841 5843 5845 5846 5848 5850 5853 5856 5857 5858 5856 5856 5858 5858 5859 5860 5860 5861 5861 5861 5861 5862 5861 5861 5861 5861 5860 5860 5860 5859 5859 5858 5858 5857 5856 5855 5855 5854 5854 5854 5854 5854
5835 5836 5836 5838 5839 5841 5842 5844 5847 5848 5849 5851 5851 5851 5852 5852 5853 5854 5855 5856 5856 5856 5857 5857 5857 5857 5856 5856 5856 5856 5855 5855 5855 5854 5854 5853 5853 5852 5852 5851 5851 5851 5851 5850
5829 5831 5832 5833 5834 5835 5837 5838 5840 5842 5843 5845 5846 5846 5847 5846 5847 5849 5849 5850 5851 5851 5851 5851 5851 5851 5851 5851 5851 5851 5851 5851 5851 5850 5850 5849 5849 5849 5848 5847 5847 5847 5847 5847
5824 5826 5827 5828 5829 5830 5831 5833 5834 5836 5837 5839 5841 5843 5840 5840 5841 5842 5843 5844 5845 5845 5845 5845 5845 5845 5846 5846 5846 5846 5846 5846 5846 5846 5845 5845 5845 5845 5844 5844 5844 5843 5843 5843
5819 5821 5822 5823 5823 5824 5825 5827 5828 5830 5831 5832 5834 5837 5833 5833 5834 5836 5837 5837 5838 5838 5839 5839 5839 5839 5840 5840 5841 5841 5841 5841 5841 5841 5841 5841 5840 5840 5840 5840 5840 5839 5839 5839
5814 5816 5817 5819 5820 5820 5820 5821 5822 5824 5825 5825 5828 5830 5826 5826 5828 5829 5830 5831 5831 5832 5832 5833 5833 5834 5834 5835 5835 5836 5836 5836 5836 5836 5836 5836 5835 5835 5835 5835 5835 5835 5835 5835
5809 5810 5813 5815 5815 5814 5814 5815 5816 5817 5819 5819 5820 5822 5820 5820 5821 5823 5823 5824 5825 5826 5826 5826 5827 5828 5828 5829 5830 5830 5830 5831 5830 5830 5830 5830 5830 5830 5830 5830 5830 5830 5830 5830
5804 5805 5806 5807 5807 5808 5809 5810 5810 5811 5812 5813 5814 5815 5815 5814 5815 5816 5817 5818 5818 5819 5820 5820 5821 5821 5822 5823 5824 5824 5824 5824 5824 5824 5824 5824 5824 5824 5824 5825 5825 5825 5825 5825
5798 5799 5800 5801 5801 5802 5803 5804 5804 5805 5805 5806 5807 5808 5808 5808 5809 5810 5811 5811 5812 5813 5813 5814 5815 5815 5816 5816 5817 5817 5817 5818 5818 5818 5817 5817 5817 5818 5818 5818 5819 5819 5819 5819
5792 5794 5795 5796 5796 5796 5797 5798 5798 5799 5799 5800 5801 5802 5802 5802 5803 5804 5804 5805 5806 5806 5807 5807 5808 5808 5809 5810 5810 5810 5811 5811 5811 5811 5811 5810 5811 5811 5811 5812 5812 5812 5813 5813
5787 5788 5789 5789 5790 5791 5793 5792 5792 5793 5793 5793 5794 5795 5795 5796 5797 5797 5798 5798 5799 5800 5800 5800 5801 5802 5802 5802 5802 5803 5803 5803 5803 5803 5803 5803 5803 5803 5804 5804 5805 5806 5806 5806
5781 5782 5783 5784 5784 5785 5785 5786 5786 5786 5786 5787 5787 5788 5789 5789 5790 5791 5791 5791 5792 5793 5793 5794 5794 5794 5795 5795 5795 5795 5795 5795 5795 5795 5795 5795 5795 5795 5796 5797 5798 5798 5799 5799
5775 5776 5777 5777 5778 5779 5779 5779 5779 5781 5780 5780 5781 5781 5782 5782 5783 5784 5784 5784 5785 5785 5786 5786 5787 5787 5787 5787 5787 5787 5787 5787 5787 5787 5787 5787 5788 5788 5788 5789 5790 5790 5791 5792
5769 5769 5770 5771 5771 5772 5772 5773 5773 5775 5775 5774 5774 5774 5775 5775 5776 5777 5777 5777 5778 5778 5778 5779 5779 5780 5779 5779 5779 5779 5779 5779 5780 5780 5780 5780 5780 5781 5781 5782 5782 5783 5784 5784
5763 5763 5764 5764 5765 5767 5765 5766 5767 5767 5766 5767 5767 5767 5768 5768 5769 5769 5769 5770 5770 5770 5771 5771 5771 5772 5772 5771 5771 5771 5771 5772 5772 5772 5772 5772 5773 5773 5774 5775 5775 5775 5776 5776
5756 5757 5757 5758 5759 5758 5758 5758 5759 5759 5759 5759 5760 5760 5760 5761 5761 5762 5762 5762 5763 5763 5763 5763 5764 5764 5764 5764 5764 5763 5764 5764 5764 5765 5765 5765 5765 5766 5766 5767 5767 5768 5768 5768
5749 5749 5750 5750 5751 5751 5750 5750 5751 5752 5752 5752 5753 5753 5753 5753 5753 5754 5754 5755 5755 5755 5756 5756 5756 5756 5757 5757 5757 5756 5757 5757 5757 5757 5758 5758 5758 5758 5759 5759 5760 5760 5760 5760
5741 5741 5742 5742 5743 5743 5743 5743 5744 5744 5745 5745 5745 5745 5745 5746 5746 5746 5747 5747 5747 5748 5748 5748 5748 5749 5749 5750 5750 5750 5750 5750 5750 5750 5750 5750 5750 5750 5751 5751 5752 5752 5752 5752
5734 5734 5735 5735 5735 5736 5736 5736 5737 5737 5738 5738 5738 5738 5738 5739 5739 5739 5739 5740 5740 5741 5741 5741 5741 5742 5742 5743 5743 5743 5743 5743 5743 5742 5742 5742 5743 5743 5743 5743 5744 5744 5744 5744